Dewpoint
29 28 27 29 30 28 28 28 27 24 24 25 23 26 26 28 35 35 36 36 36 34 34 34 35 35 36 36 37 38 39 39 40 42 44 47 49 50
27 26 27 27 27 27 26 27 26 25 23 24 24 22 22 20 29 34 34 36 35 33 32 32 32 33 33 34 35 36 37 37 39 40 42 45 48 50
25 25 24 23 22 23 25 23 22 23 20 21 25 21 19 20 21 24 34 34 35 34 31 31 30 31 32 32 34 35 36 36 36 39 41 43 44 47
23 22 21 20 19 20 21 20 20 21 21 19 23 19 17 18 20 22 30 27 33 37 33 29 30 29 30 30 33 34 35 36 35 36 38 40 42 44
21 20 18 17 17 19 19 18 19 20 21 21 20 18 18 16 18 20 26 25 21 33 35 29 30 28 28 30 32 33 34 36 34 35 36 35 37 39
21 20 19 19 18 17 15 16 18 20 20 18 17 16 13 14 17 17 18 23 21 29 33 27 28 28 27 28 30 34 34 35 34 34 33 35 35 35
22 20 22 22 21 19 16 17 17 18 18 15 14 12 11 13 14 16 17 19 21 23 27 29 26 25 27 26 27 32 34 34 34 33 32 32 32 33
20 20 21 22 21 20 20 19 18 13 16 13 12 12 13 14 15 16 17 18 23 19 21 25 25 23 26 24 26 30 33 33 33 32 30 30 30 30
22 21 18 21 20 21 20 18 18 16 15 14 13 9 13 12 15 15 17 19 15 17 20 21 23 18 23 23 25 28 30 34 28 27 26 25 26 28
11 10 10 9 10 17 14 9 4 5 9 16 8 6 6 13 16 16 18 18 15 13 17 17 20 16 16 21 23 26 28 30 26 25 24 22 21 24
7 4 4 3 16 20 7 2 -2 1 12 17 20 18 20 19 16 16 18 19 8 2 9 11 16 16 14 14 20 22 25 25 30 25 24 21 20 20
4 6 16 7 19 18 4 2 1 3 1 6 7 11 12 11 19 7 14 10 3 3 11 12 12 14 13 14 16 18 18 21 24 28 22 21 20 18
5 2 2 16 17 19 15 4 5 0 6 0 -0 0 1 4 8 10 5 5 2 2 11 11 8 9 8 6 12 13 16 16 18 21 21 20 19 18
5 -1 2 16 16 17 12 17 18 7 2 -1 -1 -1 1 2 3 8 5 3 6 9 10 13 9 8 4 3 4 11 11 14 16 17 20 18 18 17
8 10 16 16 16 16 18 17 10 5 -2 -3 -5 -4 -1 4 8 9 12 13 13 13 15 11 12 8 7 2 4 4 6 11 13 14 16 18 17 16
16 15 12 13 8 8 12 12 10 5 4 0 -0 2 9 10 10 11 10 12 9 9 14 13 12 10 6 6 7 4 7 6 8 9 12 13 13 15
11 10 9 10 10 11 12 11 12 12 10 7 8 11 12 13 13 13 13 12 6 5 5 11 16 14 8 7 5 3 3 2 3 6 10 8 9 13
12 11 8 9 12 13 12 11 11 11 12 12 13 13 13 13 12 12 12 11 9 9 6 8 8 9 10 10 11 4 2 2 1 4 5 -0 2 7
13 12 11 13 14 15 13 10 10 11 12 13 12 11 13 13 12 10 10 9 9 8 3 3 7 7 -2 -6 6 11 4 5 6 5 6 2 -2 3
14 14 14 14 14 14 12 10 10 12 12 11 10 9 8 11 11 10 9 8 9 6 5 3 3 4 4 -4 -4 5 12 8 5 4 5 5 5 11
12 13 15 15 12 11 12 11 10 10 10 6 8 7 3 9 9 9 8 5 7 5 5 4 4 8 7 10 -2 2 8 10 10 10 9 2 2 4
12 13 15 14 12 11 10 10 8 7 7 8 3 4 2 7 5 6 5 5 7 7 5 5 3 4 5 4 4 -3 7 6 10 9 7 8 2 -6
6 10 12 10 10 10 11 10 11 9 10 9 7 0 -2 5 6 6 5 5 6 5 4 3 1 2 0 1 4 3 3 1 7 3 8 6 5 6
Lifted_Index
14 14 14 14 14 14 14 14 13 11 11 12 12 13 14 14 14 14 14 14 14 14 14 14 14 14 15 15 14 14 14 14 13 12 11 8 6 4
14 14 14 14 15 15 15 14 14 12 12 12 13 13 14 14 14 14 14 14 14 14 14 15 15 15 15 15 15 15 15 14 13 13 12 10 8 7
14 14 14 15 15 15 15 15 15 13 12 12 13 13 14 14 14 14 14 14 14 14 15 15 15 15 15 15 15 16 16 15 14 14 13 12 11 10
14 14 14 14 15 15 15 15 15 14 13 12 13 13 14 14 14 14 14 14 14 14 15 15 15 15 15 15 16 17 17 17 16 15 15 14 13 13
14 14 14 14 14 14 15 15 15 14 13 12 13 13 14 14 14 14 14 14 14 14 14 15 15 16 16 16 17 17 18 18 18 18 17 16 15 15
14 14 14 14 14 15 15 15 14 14 13 13 13 13 14 14 14 14 14 14 14 14 14 15 15 16 17 17 18 18 18 19 19 19 19 18 17 16
14 14 14 15 15 15 15 15 14 14 13 13 13 13 13 14 14 14 14 14 14 14 14 15 15 16 17 18 18 19 19 19 20 20 21 20 19 19
14 14 15 15 16 16 16 15 15 15 14 14 13 13 14 14 14 14 14 13 13 14 14 15 15 16 17 18 19 19 19 20 21 21 22 21 21 20
14 14 15 15 16 16 16 16 17 17 16 16 15 15 15 16 15 15 14 13 13 14 14 15 16 16 17 19 19 19 19 20 21 22 22 22 22 22
15 15 15 15 16 16 16 17 17 18 18 18 18 18 18 18 17 15 14 14 14 14 15 15 16 16 18 19 20 20 19 20 21 22 23 23 23 24
15 16 16 16 16 17 17 17 16 17 18 19 19 20 20 19 18 16 15 14 14 15 15 16 16 16 17 19 20 20 20 20 20 22 23 24 24 24
15 16 16 16 17 18 18 17 16 17 17 18 19 20 20 19 18 17 16 15 14 15 16 17 17 17 17 19 20 20 20 20 21 21 22 23 24 24
15 16 16 17 18 18 18 18 17 17 17 18 18 19 19 19 18 18 18 17 16 17 18 18 18 17 18 18 20 21 21 21 21 21 22 23 23 24
16 16 17 18 18 18 18 18 18 18 17 17 17 18 18 18 19 19 19 19 19 19 19 19 19 19 19 18 19 20 21 21 22 22 22 23 23 23
17 17 18 18 18 18 18 18 18 18 17 17 17 18 18 19 19 19 20 20 20 20 20 20 20 20 19 19 19 20 20 21 22 22 23 23 23 24
17 17 18 18 18 18 18 18 18 18 17 17 17 18 18 19 19 19 20 20 19 20 20 20 21 21 20 20 20 20 20 21 22 23 23 23 23 24
17 17 17 17 17 17 17 17 18 18 17 17 17 18 18 18 19 19 19 19 19 19 19 20 21 21 21 21 20 20 21 21 22 23 23 23 23 24
16 16 16 16 16 16 16 17 17 17 18 18 17 17 18 18 18 19 19 19 18 18 19 20 20 20 20 20 20 21 21 21 22 22 22 22 22 23
15 15 15 15 16 16 16 17 17 17 18 18 17 17 17 18 18 18 18 18 18 18 18 19 19 18 17 18 19 21 21 21 21 22 22 21 22 22
15 15 15 16 16 16 16 17 17 17 17 17 17 17 17 17 17 18 18 18 17 17 18 18 18 18 18 17 18 20 21 21 21 21 21 21 21 22
16 16 16 16 16 16 16 17 17 17 17 17 17 17 17 17 17 17 17 17 17 17 17 18 19 19 19 18 18 19 20 21 21 21 21 21 20 20
16 16 16 16 16 16 17 17 17 17 17 17 17 17 17 17 17 17 17 17 17 17 17 18 18 19 19 18 18 18 19 20 20 20 21 21 20 19
16 16 16 16 17 17 17 17 17 17 17 17 17 17 17 17 17 17 17 17 17 17 17 17 18 18 18 18 17 17 18 18 19 19 20 21 21 21